Hourly Data Report for September 15, 2021

SAINT JOHN A
NEW BRUNSWICK
Current Station Operator: NAVCAN

45°18'58.000" N
65°53'24.000" W
108.80 m
8104901
71609
YSJ

Download Data

Hourly Data (September 2021)
Hourly Data Report for September 15, 2021
TIME
LST
Temp Definition
°C
Dew Point Definition
°C
Rel Hum Definition
%
Precip. Amount Definition
mm

Wind Dir Definition
10's deg

Wind Spd Definition
km/h
Visibility Definition
km
Stn Press Definition
kPa
Hmdx Definition


Wind Chill Definition


Weather Definition


00:00 10.8 9.9 94 LegendMM 13 12 24.1 100.73     LegendNANA
01:00 9.7 9.3 97 LegendMM 10 9 24.1 100.75     LegendNANA
02:00 8.1 8.1 100 LegendMM 36 2 24.1 100.74     Clear
03:00 7.4 7.4 100 LegendMM 13 4 24.1 100.70     LegendNANA
04:00 10.7 10.0 95 LegendMM 13 18 LegendMM 100.63     LegendNANA
05:00 11.8 11.1 96 LegendMM 15 17 24.1 100.70     Mostly Cloudy
06:00 12.0 11.0 94 LegendMM 15 17 24.1 100.70     LegendNANA
07:00 12.4 11.1 91 LegendMM 15 19 24.1 100.71     LegendNANA
08:00 13.0 11.6 91 LegendMM 15 21 24.1 100.71     Cloudy
09:00 14.2 12.4 88 LegendMM 16 20 24.1 100.65     LegendNANA
10:00 14.8 11.7 82 LegendMM 16 24 24.1 100.61     LegendNANA
11:00 16.2 11.5 73 LegendMM 17 21 24.1 100.52     Cloudy
12:00 15.7 12.4 81 LegendMM 17 21 24.1 100.50     Rain Showers
13:00 16.2 11.7 74 LegendMM 14 19 24.1 100.35     Rain Showers
14:00 16.0 12.0 77 LegendMM 16 16 LegendMM 100.29     Cloudy
15:00 17.9 14.7 82 LegendMM 17 25 24.1 100.21     LegendNANA
16:00 17.7 16.4 92 LegendMM 18 22 24.1 100.17     Rain
17:00 18.2 17.2 94 LegendMM 18 33 LegendMM 100.16     Rain
18:00 18.2 17.6 96 LegendMM 19 27 LegendMM 100.17     Rain
19:00 18.7 18.7 100 LegendMM 20 35 2.4 100.17     Fog
20:00 17.4 17.4 100 LegendMM 21 34 1.2 100.23     Fog
21:00 16.7 16.7 100 LegendMM 20 23 0.4 100.25     Fog
22:00 16.2 16.2 100 LegendMM 20 16 LegendMM 100.24     Fog
23:00 16.1 16.1 100 LegendMM 21 16 LegendMM 100.30     Fog

Notes on Data Quality.

Legend

  • E = Estimated
  • M = Missing
  • NA = Not Available*
  • [empty] = Indicates an unobserved value
Date modified: